| time (UTC) | temp F | wind direction | speed knots | gust knots | rain 1hr in | rain 24hr in | rain mn in | humidity % | barometer mb |
| 20260504081506 | 37 | 222 | 0.0 | 0.0 | 0.00 | 0.00 | 0.00 | 83 | 1015.9 |
| 20260504044547 | 40 | 218 | 0.0 | 2.6 | 0.00 | 0.00 | 0.00 | 78 | 1015.9 |
| 20260504043052 | 40 | 237 | 0.0 | 1.7 | 0.00 | 0.00 | 0.00 | 79 | 1015.9 |
| 20260504041541 | 40 | 247 | 0.0 | 1.7 | 0.00 | 0.00 | 0.00 | 80 | 1015.6 |
| 20260504040039 | 40 | 227 | 0.0 | 0.0 | 0.00 | 0.00 | 0.00 | 80 | 1015.5 |
| 20260504034538 | 40 | 235 | 0.0 | 0.0 | 0.00 | 0.00 | 0.00 | 79 | 1015.5 |
| 20260504033039 | 40 | 235 | 0.0 | 0.0 | 0.00 | 0.00 | 0.00 | 79 | 1015.3 |
| 20260504031538 | 40 | 235 | 0.0 | 0.0 | 0.00 | 0.00 | 0.00 | 80 | 1015.3 |
| 20260504030036 | 40 | 235 | 0.0 | 0.0 | 0.00 | 0.00 | 0.00 | 78 | 1015.2 |
| 20260504024535 | 41 | 234 | 0.0 | 0.0 | 0.00 | 0.00 | 0.00 | 78 | 1015.2 |
| 20260504023035 | 41 | 234 | 0.0 | 0.0 | 0.00 | 0.00 | 0.00 | 76 | 1015.2 |
| 20260504021533 | 42 | 234 | 0.0 | 0.0 | 0.00 | 0.00 | 0.00 | 74 | 1015.2 |
| 20260504020044 | 43 | 234 | 0.0 | 0.0 | 0.00 | 0.00 | 0.00 | 74 | 1015.2 |
| 20260504014543 | 43 | 236 | 0.0 | 0.0 | 0.00 | 0.00 | 0.00 | 72 | 1015.1 |
| 20260504013040 | 44 | 236 | 0.0 | 0.0 | 0.00 | 0.00 | 0.00 | 70 | 1015.0 |
| 20260504011631 | 45 | 236 | 0.0 | 0.0 | 0.00 | 0.00 | 0.00 | 68 | 1014.8 |
| 20260504010031 | 47 | 236 | 0.0 | 0.0 | 0.00 | 0.00 | 0.00 | 66 | 1014.7 |
| 20260504004534 | 48 | 250 | 0.0 | 0.0 | 0.00 | 0.00 | 0.00 | 63 | 1014.5 |
| 20260504003031 | 50 | 260 | 0.0 | 0.0 | 0.00 | 0.00 | 0.00 | 58 | 1014.4 |
| 20260504001534 | 52 | 241 | 0.0 | 0.0 | 0.00 | 0.00 | 0.00 | 53 | 1014.2 |
| 20260504000029 | 54 | 233 | 0.0 | 2.6 | 0.00 | 0.00 | 0.00 | 51 | 1014.1 |
| 20260503234529 | 56 | 243 | 0.0 | 1.7 | 0.00 | 0.00 | 0.00 | 45 | 1013.9 |
| 20260503233028 | 57 | 264 | 0.0 | 0.9 | 0.00 | 0.00 | 0.00 | 44 | 1013.9 |
| 20260503231528 | 57 | 300 | 0.0 | 8.7 | 0.00 | 0.00 | 0.00 | 41 | 1013.8 |
| 20260503230028 | 58 | 289 | 0.0 | 10.4 | 0.00 | 0.00 | 0.00 | 40 | 1013.7 |
| 20260503224527 | 58 | 279 | 2.6 | 10.4 | 0.00 | 0.00 | 0.00 | 38 | 1013.7 |
| 20260503223025 | 60 | 267 | 0.0 | 9.6 | 0.00 | 0.00 | 0.00 | 40 | 1013.7 |
| 20260503221524 | 60 | 274 | 0.9 | 10.4 | 0.00 | 0.00 | 0.00 | 38 | 1013.7 |
| 20260503220024 | 60 | 273 | 4.3 | 12.2 | 0.00 | 0.00 | 0.00 | 37 | 1013.9 |
| 20260503214522 | 59 | 262 | 7.0 | 15.6 | 0.00 | 0.00 | 0.00 | 38 | 1013.7 |
| 20260503213022 | 59 | 312 | 0.0 | 13.9 | 0.00 | 0.00 | 0.00 | 40 | 1013.7 |
| 20260503211521 | 59 | 255 | 0.0 | 13.9 | 0.00 | 0.00 | 0.00 | 38 | 1013.7 |
| 20260503210019 | 59 | 305 | 0.9 | 13.9 | 0.00 | 0.00 | 0.00 | 37 | 1013.7 |
| 20260503204519 | 59 | 316 | 8.7 | 21.7 | 0.00 | 0.00 | 0.00 | 38 | 1013.7 |
| 20260503203040 | 59 | 276 | 4.3 | 19.1 | 0.00 | 0.00 | 0.00 | 37 | 1013.7 |
| 20260503201516 | 59 | 250 | 5.2 | 15.6 | 0.00 | 0.00 | 0.00 | 39 | 1013.9 |
| 20260503200013 | 56 | 317 | 2.6 | 15.6 | 0.00 | 0.00 | 0.00 | 39 | 1014.1 |
| 20260503194528 | 56 | 301 | 0.0 | 13.0 | 0.00 | 0.00 | 0.00 | 44 | 1014.3 |
| 20260503193011 | 56 | 309 | 0.0 | 17.4 | 0.00 | 0.00 | 0.00 | 41 | 1014.5 |
| 20260503191510 | 56 | 317 | 0.0 | 14.8 | 0.00 | 0.00 | 0.00 | 42 | 1014.6 |
| 20260503190010 | 56 | 325 | 6.1 | 15.6 | 0.00 | 0.00 | 0.00 | 42 | 1014.6 |
| 20260503184517 | 56 | 43 | 7.0 | 18.2 | 0.00 | 0.00 | 0.00 | 45 | 1014.9 |
| 20260503183008 | 56 | 278 | 4.3 | 16.5 | 0.00 | 0.00 | 0.00 | 42 | 1014.8 |
| 20260503181506 | 55 | 301 | 7.0 | 16.5 | 0.00 | 0.00 | 0.00 | 43 | 1014.9 |
| 20260503180005 | 55 | 299 | 4.3 | 14.8 | 0.00 | 0.00 | 0.00 | 43 | 1015.0 |
| 20260503174503 | 55 | 310 | 5.2 | 16.5 | 0.00 | 0.00 | 0.00 | 45 | 1015.1 |
| 20260503173002 | 54 | 279 | 7.0 | 15.6 | 0.00 | 0.00 | 0.00 | 42 | 1015.1 |
| 20260503171605 | 53 | 318 | 10.4 | 19.1 | 0.00 | 0.00 | 0.00 | 43 | 1015.4 |